Погода в Мансанильо

Мексика     19°02′57″N   104°19′05″W
темп.,
°C
ветер,
м/с
пор.,
м/с
влажн.,
%
обл.,
%
осадки,
мм/ч
давл.,
гПа
погр.,
м
12 мая, ср
ср1201:00+25св1184100 0.0 101216
04:00+24св117865 0.0 101152
07:00+24ссв117494 0.0 101148
10:00+29ююз115749 0.0 1013358
13:00+30юз325523 0.0 1012782
16:00+29зюз555989 0.0 1010699
19:00+28з456310 0.0 1010512
22:00+25зсз238115 0.0 1011120
13 мая, чт
чт1301:00+25св017998 0.0 101285
04:00+25в117872 0.1 101191
07:00+24всв117923 0.8 101257
10:00+28ююв226417 0.1 1013395
13:00+29ююз435957 0.1 1013730
16:00+29зюз445969 0.1 1011692
19:00+28зсз336384 0.4 1011478
22:00+26сз227613 0.4 101187
14 мая, пт
пт1401:00+26сз227811 0.4 101291
04:00+25всв117723 0.1 101157
07:00+24вюв228251 0.4 101290
10:00+28юв116585 0.3 1014332
13:00+29ююз42618 0.4 1012689
16:00+29зюз54615 0.0 1010637
19:00+28з44675 0.4 1010509
22:00+26зсз11835 0.6 1012128
15 мая, сб
сб1501:00+25всв018456 0.4 1013116
04:00+24ссз118325 0.8 101263
07:00+24всв118195 0.8 101260
10:00+28ююв126594 0.0 1014363
13:00+29ююз435968 0.0 1013745
16:00+29зюз445817 0.0 1011684
19:00+28з456197 0.1 1010556
22:00+26з22785 0.2 1012135
16 мая, вс
вс1601:00+25з118195 0.2 1013168
04:00+24ссв1181100 0.0 1012137
07:00+24ссв118056 0.0 101376
10:00+28ююз116310 0.0 1014411
13:00+29юз425919 0.0 1013797
16:00+29юз43615 0.0 1011697
19:00+28з34675 0.0 1010568
22:00+25з22790 0.0 1012198